TimeMST,TemperatureF,Dew PointF,Humidity,Sea Level PressureIn,VisibilityMPH,Wind Direction,Wind SpeedMPH,Gust SpeedMPH,PrecipitationIn,Events,Conditions,WindDirDegrees,DateUTC
12:55 AM,25.0,21.0,85,30.28,10.0,Calm,Calm,-,N/A,,Mostly Cloudy,0,2013-03-01 07:55:00
1:55 AM,24.1,21.0,88,30.28,10.0,Calm,Calm,-,N/A,,Overcast,0,2013-03-01 08:55:00
2:55 AM,23.0,21.0,92,30.28,10.0,Calm,Calm,-,N/A,,Scattered Clouds,0,2013-03-01 09:55:00
3:55 AM,21.9,19.9,92,30.30,10.0,Calm,Calm,-,N/A,,Overcast,0,2013-03-01 10:55:00
4:55 AM,21.0,18.0,88,30.31,10.0,Calm,Calm,-,N/A,,Mostly Cloudy,0,2013-03-01 11:55:00
5:55 AM,19.0,17.1,92,30.33,8.0,Calm,Calm,-,N/A,,Clear,0,2013-03-01 12:55:00
6:55 AM,19.0,17.1,92,30.36,8.0,WNW,3.5,-,N/A,,Clear,290,2013-03-01 13:55:00
7:55 AM,23.0,21.0,92,30.37,8.0,Calm,Calm,-,N/A,,Clear,0,2013-03-01 14:55:00
8:55 AM,28.0,25.0,88,30.38,10.0,Calm,Calm,-,N/A,,Clear,0,2013-03-01 15:55:00
9:55 AM,34.0,26.1,73,30.37,10.0,Calm,Calm,-,N/A,,Clear,0,2013-03-01 16:55:00
10:45 AM,35.6,26.6,70,30.30,10.0,ENE,3.5,-,N/A,,Mostly Cloudy,60,2013-03-01 17:45:00
10:55 AM,36.0,26.1,67,30.36,10.0,Calm,Calm,-,N/A,,Mostly Cloudy,0,2013-03-01 17:55:00
11:18 AM,39.2,26.6,61,30.29,10.0,NNE,4.6,-,N/A,,Scattered Clouds,20,2013-03-01 18:18:00
11:55 AM,39.9,25.0,55,30.35,10.0,Variable,3.5,-,N/A,,Clear,0,2013-03-01 18:55:00
12:55 PM,42.1,24.1,49,30.32,10.0,NNW,4.6,-,N/A,,Clear,330,2013-03-01 19:55:00
1:55 PM,43.0,21.0,42,30.30,10.0,NW,4.6,-,N/A,,Clear,320,2013-03-01 20:55:00
2:55 PM,43.0,21.0,42,30.30,10.0,Variable,4.6,-,N/A,,Clear,0,2013-03-01 21:55:00
3:55 PM,41.0,25.0,53,30.31,10.0,ESE,5.8,-,N/A,,Clear,120,2013-03-01 22:55:00
4:55 PM,36.0,26.1,67,30.31,10.0,East,9.2,-,N/A,,Clear,100,2013-03-01 23:55:00
5:55 PM,30.0,24.1,79,30.34,10.0,East,9.2,-,N/A,,Clear,100,2013-03-02 00:55:00
6:55 PM,27.0,24.1,89,30.35,10.0,East,5.8,-,N/A,,Clear,90,2013-03-02 01:55:00
7:55 PM,28.0,25.0,88,30.32,10.0,ESE,5.8,-,N/A,,Overcast,110,2013-03-02 02:55:00
8:55 PM,28.0,25.0,88,30.31,10.0,ESE,3.5,-,N/A,,Clear,110,2013-03-02 03:55:00
9:55 PM,27.0,24.1,89,30.28,10.0,ESE,3.5,-,N/A,,Clear,120,2013-03-02 04:55:00
10:55 PM,28.0,24.1,85,30.27,10.0,Calm,Calm,-,N/A,,Overcast,0,2013-03-02 05:55:00
11:55 PM,27.0,24.1,89,30.25,10.0,East,6.9,-,N/A,,Overcast,80,2013-03-02 06:55:00